Weather History for KMGN - February, 2013

Change the Weather History Date:

Wednesday, February 27, 2013

  Actual Average (KPLN) Record (KPLN)
Temperature  
Mean Temperature 31 °F -  
Max Temperature 32 °F 32 °F 46 °F (1983)
Min Temperature 30 °F 10 °F -27 °F (2014)
Degree Days  
Heating Degree Days 34    
Moisture  
Dew Point 29 °F    
Average Humidity 88    
Maximum Humidity 93    
Minimum Humidity 79    
Precipitation  
Precipitation 0.00 in - - ()
Sea Level Pressure  
Sea Level Pressure 29.68 in    
Wind  
Wind Speed 15 mph (NE)    
Max Wind Speed 20 mph    
Max Gust Speed 30 mph    
Visibility 5 miles    
Events Snow    
Averages and records for this station are not official NWS values.
T = Trace of Precipitation, MM = Missing Value Source: NWS Daily Summary

Daily Weather History Graph

Daily Weather History Graph

Search for Another Location

Airport or City:

Trip Planner

Search our weather history database for the weather conditions in past years. The results will help you decide how hot, cold, wet, or windy it might be!

Date:

Astronomy

Feb. 27, 2013 Rise Set
Actual Time 7:20 AM EST 6:24 PM EST
Civil Twilight 6:51 AM EST 6:54 PM EST
Nautical Twilight 6:17 AM EST 7:28 PM EST
Astronomical Twilight 5:42 AM EST 8:02 PM EST
Moon 8:54 PM EST (2/27) 7:47 AM EST (2/27)
Length of Visible Light 12h 02m
Length of Day
11h 03m
Waning Gibbous, 96% of the Moon is Illuminated
Feb 27
Waning Gibbous
Mar 4
Last Quarter
Mar 11
New
Mar 19
First Quarter
Mar 27
Full

Hourly Weather History & Observations

Time (EST) Temp. Windchill Dew Point Humidity Pressure Visibility Wind Dir Wind Speed Gust Speed Precip Events Conditions
12:15 AM 32.9 °F 21.6 °F 27.1 °F 79% 29.75 in 10.0 mi ENE 18.4 mph 26.5 mph N/A   Clear
12:34 AM 32.9 °F 22.4 °F 27.3 °F 80% 29.75 in 10.0 mi ENE 16.1 mph 29.9 mph N/A   Mostly Cloudy
12:54 AM 32.9 °F 22.0 °F 27.5 °F 81% 29.74 in 10.0 mi ENE 17.3 mph 24.2 mph N/A   Overcast
1:15 AM 32.9 °F 22.8 °F 27.1 °F 79% 29.73 in 10.0 mi ENE 15.0 mph 25.3 mph N/A   Overcast
1:34 AM 32.9 °F 21.6 °F 27.0 °F 79% 29.73 in 7.0 mi ENE 18.4 mph 23.0 mph N/A Snow Light Snow
1:54 AM 32.9 °F 21.6 °F 28.2 °F 83% 29.72 in 2.5 mi ENE 18.4 mph 25.3 mph N/A Snow Light Snow
2:15 AM 31.1 °F 19.3 °F 27.7 °F 87% 29.72 in 2.0 mi ENE 18.4 mph 25.3 mph N/A Snow Light Snow
2:34 AM 30.9 °F 19.1 °F 27.9 °F 88% 29.71 in 2.5 mi ENE 18.4 mph 27.6 mph N/A Snow Light Snow
2:54 AM 30.6 °F 18.2 °F 27.5 °F 88% 29.70 in 3.0 mi ENE 19.6 mph 28.8 mph N/A Snow Light Snow
3:15 AM 30.6 °F 19.4 °F 27.5 °F 88% 29.69 in 4.0 mi NE 16.1 mph 21.9 mph N/A Snow Light Snow
3:34 AM 30.6 °F 19.8 °F 27.5 °F 88% 29.68 in 7.0 mi NE 15.0 mph 23.0 mph N/A   Overcast
3:54 AM 30.6 °F 19.0 °F 27.5 °F 88% 29.68 in 5.0 mi NE 17.3 mph 25.3 mph N/A Snow Light Snow
4:15 AM 30.6 °F 19.8 °F 27.5 °F 88% 29.68 in 7.0 mi ENE 15.0 mph 23.0 mph N/A   Overcast
4:34 AM 30.6 °F 20.2 °F 27.5 °F 88% 29.67 in 2.5 mi ENE 13.8 mph 20.7 mph N/A Snow Light Snow
4:54 AM 30.6 °F 19.8 °F 27.5 °F 88% 29.67 in 4.0 mi NE 15.0 mph 21.9 mph N/A Snow Light Snow
5:15 AM 30.6 °F 21.2 °F 27.5 °F 88% 29.67 in 5.0 mi NE 11.5 mph 20.7 mph N/A Snow Light Snow
5:54 AM 30.6 °F 20.2 °F 27.5 °F 88% 29.67 in 4.0 mi NE 13.8 mph - N/A Snow Light Snow
6:15 AM 30.6 °F 21.2 °F 27.5 °F 88% 29.67 in 4.0 mi NE 11.5 mph 21.9 mph N/A Snow Light Snow
6:34 AM 30.6 °F 20.7 °F 27.5 °F 88% 29.67 in 5.0 mi NE 12.7 mph 18.4 mph N/A Snow Light Snow
6:54 AM 30.9 °F 22.2 °F 27.7 °F 88% 29.68 in 10.0 mi NE 10.4 mph 18.4 mph N/A   Overcast
7:14 AM 30.6 °F 19.8 °F 27.9 °F 90% 29.67 in 3.0 mi NE 15.0 mph 20.7 mph N/A Snow Light Snow
7:34 AM 31.1 °F 20.9 °F 28.0 °F 88% 29.67 in 5.0 mi NE 13.8 mph 19.6 mph N/A   Overcast
7:55 AM 31.1 °F 19.7 °F 27.7 °F 87% 29.67 in 4.0 mi NE 17.3 mph 23.0 mph N/A Snow Light Snow
8:14 AM 31.1 °F 20.1 °F 27.7 °F 87% 29.68 in 7.0 mi ENE 16.1 mph 21.9 mph N/A   Overcast
8:34 AM 31.1 °F 20.9 °F 27.7 °F 87% 29.68 in 5.0 mi NE 13.8 mph 18.4 mph N/A Snow Light Snow
8:55 AM 31.3 °F 19.9 °F 28.0 °F 88% 29.68 in 4.0 mi NE 17.3 mph 24.2 mph N/A   Overcast
9:14 AM 31.3 °F 21.6 °F 27.9 °F 87% 29.68 in 4.0 mi NE 12.7 mph 21.9 mph N/A   Overcast
9:34 AM 31.3 °F 20.3 °F 27.9 °F 87% 29.68 in 7.0 mi NE 16.1 mph 23.0 mph N/A   Overcast
10:14 AM 32.5 °F 21.5 °F 29.3 °F 88% 29.67 in 5.0 mi NE 17.3 mph 27.6 mph N/A   Overcast
10:34 AM 32.4 °F 20.9 °F 29.3 °F 88% 29.66 in 5.0 mi NE 18.4 mph 24.2 mph N/A   Overcast
10:54 AM 32.7 °F 23.0 °F 29.5 °F 88% 29.67 in 7.0 mi NE 13.8 mph 24.2 mph N/A   Overcast
11:14 AM 32.0 °F 20.8 °F 29.1 °F 89% 29.66 in 5.0 mi ENE 17.3 mph 21.9 mph N/A   Overcast
11:35 AM 32.7 °F 23.4 °F 29.3 °F 87% 29.66 in 5.0 mi NE 12.7 mph 24.2 mph N/A   Overcast
11:54 AM 32.9 °F 24.1 °F 29.3 °F 87% 29.66 in 5.0 mi NE 11.5 mph 23.0 mph N/A   Overcast
12:14 PM 32.9 °F 23.2 °F 29.3 °F 87% 29.67 in 3.0 mi NE 13.8 mph 24.2 mph N/A   Overcast
12:35 PM 32.9 °F 23.2 °F 29.3 °F 87% 29.66 in 2.5 mi NE 13.8 mph 21.9 mph N/A   Overcast
1:14 PM 32.9 °F 24.1 °F 29.8 °F 88% 29.66 in 1.8 mi ENE 11.5 mph 17.3 mph N/A Snow Light Snow
1:35 PM 32.9 °F 22.0 °F 29.3 °F 87% 29.66 in 2.5 mi NE 17.3 mph 20.7 mph N/A Snow Light Snow
1:54 PM 32.9 °F 23.7 °F 29.3 °F 87% 29.65 in 5.0 mi ENE 12.7 mph 23.0 mph N/A   Overcast
2:14 PM 32.9 °F 22.8 °F 29.7 °F 88% 29.65 in 3.0 mi NE 15.0 mph 20.7 mph N/A   Overcast
2:35 PM 32.9 °F 24.7 °F 30.2 °F 90% 29.65 in 3.0 mi NE 10.4 mph 20.7 mph N/A Snow Light Snow
2:54 PM 32.9 °F 24.1 °F 30.0 °F 89% 29.65 in 2.0 mi NE 11.5 mph 20.7 mph N/A Snow Light Snow
3:14 PM 32.9 °F 22.8 °F 30.2 °F 90% 29.65 in 1.8 mi ENE 15.0 mph 20.7 mph N/A Snow Light Snow
3:35 PM 32.9 °F 22.8 °F 30.2 °F 90% 29.65 in 1.2 mi NE 15.0 mph 20.7 mph N/A Snow Light Snow
3:54 PM 32.9 °F 24.1 °F 30.4 °F 90% 29.66 in 1.8 mi NE 11.5 mph 17.3 mph N/A Snow Light Snow
4:14 PM 32.9 °F 22.0 °F 30.2 °F 90% 29.66 in 2.5 mi NE 17.3 mph 21.9 mph N/A   Overcast
4:35 PM 32.9 °F 24.1 °F 30.2 °F 90% 29.66 in 3.0 mi NE 11.5 mph 19.6 mph N/A   Overcast
4:54 PM 32.9 °F 22.4 °F 30.2 °F 90% 29.67 in 4.0 mi ENE 16.1 mph 21.9 mph N/A   Overcast
5:14 PM 32.9 °F 22.8 °F 29.8 °F 88% 29.67 in 7.0 mi NE 15.0 mph 20.7 mph N/A   Overcast
5:34 PM 32.9 °F 23.2 °F 29.7 °F 88% 29.68 in 5.0 mi NE 13.8 mph 19.6 mph N/A   Overcast
5:54 PM 32.9 °F 23.7 °F 30.2 °F 90% 29.68 in 2.5 mi NE 12.7 mph 17.3 mph N/A Snow Light Snow
6:14 PM 32.9 °F 24.7 °F 30.7 °F 92% 29.69 in 2.5 mi NE 10.4 mph - N/A Snow Light Snow
6:34 PM 32.9 °F 24.7 °F 30.9 °F 92% 29.69 in 2.5 mi NE 10.4 mph 16.1 mph N/A Snow Light Snow
6:54 PM 32.9 °F 24.7 °F 30.9 °F 92% 29.69 in 3.0 mi NE 10.4 mph 16.1 mph N/A Snow Light Snow
7:14 PM 32.9 °F 25.9 °F 31.1 °F 93% 29.70 in 4.0 mi NE 8.1 mph - N/A   Overcast
7:34 PM 32.9 °F 23.7 °F 30.9 °F 92% 29.70 in 5.0 mi NE 12.7 mph 19.6 mph N/A   Overcast
7:54 PM 32.9 °F 23.7 °F 30.6 °F 91% 29.70 in 5.0 mi NE 12.7 mph 20.7 mph N/A   Overcast
8:15 PM 32.9 °F 23.7 °F 30.7 °F 92% 29.70 in 5.0 mi NE 12.7 mph 19.6 mph N/A   Overcast
8:34 PM 32.9 °F 25.9 °F 30.9 °F 92% 29.70 in 5.0 mi NE 8.1 mph - N/A Snow Light Snow
8:54 PM 32.9 °F 24.1 °F 30.9 °F 92% 29.70 in 7.0 mi NE 11.5 mph 19.6 mph N/A   Overcast
9:15 PM 32.9 °F 24.1 °F 30.6 °F 91% 29.70 in 7.0 mi NNE 11.5 mph 16.1 mph N/A   Overcast
9:34 PM 32.9 °F 23.7 °F 30.2 °F 90% 29.71 in 10.0 mi NE 12.7 mph 24.2 mph N/A   Overcast
9:54 PM 32.9 °F 24.1 °F 30.2 °F 90% 29.70 in 7.0 mi NNE 11.5 mph 17.3 mph N/A   Overcast
10:15 PM 32.9 °F 23.2 °F 30.6 °F 91% 29.70 in 5.0 mi NNE 13.8 mph - N/A Snow Light Snow
10:34 PM 32.9 °F 24.1 °F 30.6 °F 91% 29.70 in 7.0 mi NNE 11.5 mph 20.7 mph N/A Snow Light Snow
10:54 PM 32.9 °F 24.1 °F 30.2 °F 90% 29.70 in 7.0 mi NNE 11.5 mph 18.4 mph N/A   Overcast
11:15 PM 32.9 °F 24.1 °F 30.2 °F 90% 29.70 in 5.0 mi North 11.5 mph 18.4 mph N/A   Overcast
11:34 PM 32.9 °F 23.7 °F 30.2 °F 90% 29.70 in 5.0 mi NNE 12.7 mph 16.1 mph N/A   Overcast
11:54 PM 32.9 °F 24.7 °F 30.2 °F 90% 29.69 in 4.0 mi North 10.4 mph - N/A Snow Light Snow